When you browse on this site, cookies collect data to enhance your experience and personalize the content and advertising you see.
Visit our Privacy Policy to learn more. By continuing to use the site, you agree to this use of cookies and data.
  • In Österreich
  • Länderverzeichnis
  • Für 7 Tage
  • Wassertemperatur
  • Wetterkarte
  • News
  • Widgets
  • user-avatar
    Anmelden

    Stündliche Wetter Staunton

    Heute, 18 August, Sonntag

    Zeit Temperatur Niederschläge Wind Luftdruck Luftfeuchtigkeit
    00:00 +23°C° 0 mm 1 m/S 722 mmHg 90%
    01:00 +22°C° 0 mm 1 m/S 722 mmHg 88%
    02:00 +22°C° 0 mm 1 m/S 722 mmHg 88%
    03:00 +21°C° 0 mm 1 m/S 722 mmHg 89%
    04:00 +21°C° 0 mm 1 m/S 722 mmHg 90%
    05:00 +22°C° 0 mm 1 m/S 722 mmHg 89%
    06:00 +23°C° 0 mm 1 m/S 723 mmHg 88%
    07:00 +24°C° 0 mm 1 m/S 723 mmHg 87%
    08:00 +26°C° 0 mm 1 m/S 723 mmHg 76%
    09:00 +29°C° 0 mm 1 m/S 724 mmHg 65%
    10:00 +30°C° 0 mm 0 m/S 724 mmHg 54%
    11:00 +33°C° 0.1 mm 1 m/S 724 mmHg 49%
    12:00 +33°C° 0.1 mm 1 m/S 724 mmHg 44%
    13:00 +34°C° 0.1 mm 1 m/S 723 mmHg 39%
    14:00 +34°C° 0 mm 1 m/S 723 mmHg 41%
    15:00 +34°C° 0 mm 1 m/S 723 mmHg 42%
    16:00 +34°C° 0 mm 2 m/S 722 mmHg 44%
    17:00 +30°C° 1.1 mm 2 m/S 722 mmHg 56%
    18:00 +26°C° 1.1 mm 3 m/S 722 mmHg 68%
    19:00 +22°C° 1.1 mm 4 m/S 721 mmHg 80%
    20:00 +21°C° 0.4 mm 3 m/S 722 mmHg 79%
    21:00 +21°C° 0.4 mm 2 m/S 722 mmHg 78%
    22:00 +21°C° 0.4 mm 1 m/S 722 mmHg 77%
    23:00 +21°C° 0 mm 1 m/S 722 mmHg 78%

    Morgen, 19 August, Montag

    Zeit Temperatur Niederschläge Wind Luftdruck Luftfeuchtigkeit
    00:00 +21°C° 0 mm 1 m/S 722 mmHg 80%
    01:00 +21°C° 0 mm 1 m/S 722 mmHg 81%
    02:00 +21°C° 0 mm 1 m/S 722 mmHg 82%
    03:00 +21°C° 0 mm 1 m/S 722 mmHg 83%
    04:00 +21°C° 0 mm 1 m/S 722 mmHg 84%
    05:00 +22°C° 0.1 mm 1 m/S 722 mmHg 84%
    06:00 +23°C° 0.1 mm 1 m/S 723 mmHg 83%
    07:00 +24°C° 0.1 mm 1 m/S 723 mmHg 83%
    08:00 +26°C° 0 mm 1 m/S 723 mmHg 73%
    09:00 +29°C° 0 mm 1 m/S 724 mmHg 63%
    10:00 +32°C° 0 mm 1 m/S 724 mmHg 53%
    11:00 +33°C° 0 mm 1 m/S 724 mmHg 48%
    12:00 +35°C° 0 mm 2 m/S 724 mmHg 43%
    13:00 +36°C° 0 mm 2 m/S 724 mmHg 39%
    14:00 +35°C° 0 mm 2 m/S 723 mmHg 41%
    15:00 +35°C° 0 mm 2 m/S 723 mmHg 44%
    16:00 +34°C° 0 mm 3 m/S 722 mmHg 46%
    17:00 +31°C° 0.1 mm 3 m/S 722 mmHg 53%
    18:00 +29°C° 0.1 mm 2 m/S 722 mmHg 61%
    19:00 +27°C° 0.1 mm 2 m/S 722 mmHg 68%
    20:00 +26°C° 0.3 mm 2 m/S 723 mmHg 72%
    21:00 +25°C° 0.3 mm 1 m/S 723 mmHg 77%
    22:00 +23°C° 0.3 mm 1 m/S 723 mmHg 82%
    23:00 +23°C° 0 mm 1 m/S 723 mmHg 83%

    übermorgen, 20 August, Dienstag

    Zeit Temperatur Niederschläge Wind Luftdruck Luftfeuchtigkeit
    00:00 +23°C° 0 mm 1 m/S 723 mmHg 84%
    01:00 +23°C° 0 mm 1 m/S 723 mmHg 85%
    02:00 +23°C° 0 mm 1 m/S 723 mmHg 85%
    03:00 +22°C° 0 mm 1 m/S 723 mmHg 85%
    04:00 +22°C° 0 mm 1 m/S 723 mmHg 85%
    05:00 +23°C° 0 mm 1 m/S 723 mmHg 83%
    06:00 +24°C° 0 mm 1 m/S 724 mmHg 82%
    07:00 +25°C° 0 mm 1 m/S 724 mmHg 80%
    08:00 +28°C° 0 mm 1 m/S 724 mmHg 70%
    09:00 +30°C° 0 mm 1 m/S 725 mmHg 61%
    10:00 +32°C° 0 mm 2 m/S 725 mmHg 51%
    11:00 +34°C° 0 mm 2 m/S 724 mmHg 47%
    12:00 +35°C° 0 mm 3 m/S 724 mmHg 43%
    13:00 +36°C° 0 mm 3 m/S 724 mmHg 39%
    14:00 +36°C° 0 mm 3 m/S 723 mmHg 41%
    15:00 +36°C° 0 mm 3 m/S 723 mmHg 43%
    16:00 +36°C° 0 mm 2 m/S 722 mmHg 44%
    17:00 +33°C° 0.5 mm 3 m/S 722 mmHg 52%
    18:00 +30°C° 0.5 mm 3 m/S 722 mmHg 60%
    19:00 +27°C° 0.5 mm 3 m/S 722 mmHg 69%
    20:00 +26°C° 1.6 mm 3 m/S 723 mmHg 77%
    21:00 +24°C° 1.6 mm 2 m/S 723 mmHg 85%
    22:00 +21°C° 1.6 mm 2 m/S 723 mmHg 93%
    23:00 +22°C° 1 mm 1 m/S 723 mmHg 93%

    21 August, Mittwoch

    Zeit Temperatur Niederschläge Wind Luftdruck Luftfeuchtigkeit
    00:00 +22°C° 1 mm 1 m/S 723 mmHg 94%
    01:00 +22°C° 1 mm 1 m/S 722 mmHg 94%
    02:00 +21°C° 0.2 mm 1 m/S 722 mmHg 94%
    03:00 +20°C° 0.2 mm 2 m/S 722 mmHg 94%
    04:00 +20°C° 0.2 mm 2 m/S 722 mmHg 94%
    05:00 +21°C° 0 mm 2 m/S 722 mmHg 94%
    06:00 +21°C° 0 mm 2 m/S 722 mmHg 93%
    07:00 +23°C° 0 mm 2 m/S 722 mmHg 93%
    08:00 +25°C° 0 mm 2 m/S 723 mmHg 82%
    09:00 +28°C° 0 mm 3 m/S 723 mmHg 72%
    10:00 +31°C° 0 mm 3 m/S 723 mmHg 62%
    11:00 +33°C° 0 mm 3 m/S 723 mmHg 57%
    12:00 +34°C° 0 mm 4 m/S 722 mmHg 51%
    13:00 +36°C° 0 mm 4 m/S 722 mmHg 46%
    14:00 +36°C° 0 mm 4 m/S 722 mmHg 46%
    15:00 +36°C° 0 mm 4 m/S 721 mmHg 45%
    16:00 +36°C° 0 mm 4 m/S 721 mmHg 45%
    17:00 +34°C° 0 mm 3 m/S 721 mmHg 51%
    18:00 +31°C° 0 mm 3 m/S 721 mmHg 57%
    19:00 +29°C° 0 mm 2 m/S 721 mmHg 64%
    20:00 +27°C° 1.4 mm 2 m/S 721 mmHg 73%
    21:00 +25°C° 1.4 mm 2 m/S 721 mmHg 82%
    22:00 +23°C° 1.4 mm 2 m/S 721 mmHg 91%
    23:00 +23°C° 0.1 mm 2 m/S 721 mmHg 91%

    22 August, Donnerstag

    Zeit Temperatur Niederschläge Wind Luftdruck Luftfeuchtigkeit
    00:00 +23°C° 0.1 mm 2 m/S 721 mmHg 91%
    01:00 +23°C° 0.1 mm 2 m/S 721 mmHg 90%
    02:00 +23°C° 0 mm 2 m/S 720 mmHg 90%
    03:00 +21°C° 0 mm 2 m/S 720 mmHg 90%
    04:00 +21°C° 0 mm 2 m/S 720 mmHg 90%
    05:00 +21°C° 0 mm 2 m/S 720 mmHg 89%
    06:00 +23°C° 0 mm 2 m/S 720 mmHg 88%
    07:00 +23°C° 0 mm 2 m/S 721 mmHg 86%
    08:00 +25°C° 0 mm 2 m/S 721 mmHg 78%
    09:00 +27°C° 0 mm 2 m/S 721 mmHg 69%
    10:00 +30°C° 0 mm 2 m/S 722 mmHg 60%
    11:00 +30°C° 0 mm 2 m/S 721 mmHg 58%
    12:00 +31°C° 0 mm 2 m/S 721 mmHg 55%
    13:00 +32°C° 0 mm 2 m/S 721 mmHg 53%
    14:00 +31°C° 0.2 mm 2 m/S 721 mmHg 57%
    15:00 +30°C° 0.2 mm 2 m/S 721 mmHg 61%
    16:00 +29°C° 0.2 mm 3 m/S 721 mmHg 66%
    17:00 +27°C° 0.1 mm 2 m/S 721 mmHg 71%
    18:00 +25°C° 0.1 mm 1 m/S 720 mmHg 76%
    19:00 +24°C° 0.1 mm 1 m/S 720 mmHg 81%
    20:00 +23°C° 0.4 mm 1 m/S 721 mmHg 85%
    21:00 +21°C° 0.4 mm 2 m/S 721 mmHg 89%
    22:00 +20°C° 0.4 mm 2 m/S 722 mmHg 93%
    23:00 +20°C° 0 mm 2 m/S 722 mmHg 94%

    23 August, Freitag

    Zeit Temperatur Niederschläge Wind Luftdruck Luftfeuchtigkeit
    00:00 +19°C° 0 mm 2 m/S 722 mmHg 95%
    01:00 +18°C° 0 mm 2 m/S 722 mmHg 96%
    02:00 +19°C° 0 mm 1 m/S 722 mmHg 95%
    03:00 +18°C° 0 mm 1 m/S 722 mmHg 93%
    04:00 +18°C° 0 mm 1 m/S 722 mmHg 92%
    05:00 +18°C° 0 mm 1 m/S 722 mmHg 91%
    06:00 +18°C° 0 mm 1 m/S 723 mmHg 90%
    07:00 +18°C° 0 mm 1 m/S 723 mmHg 88%
    08:00 +20°C° 0 mm 1 m/S 723 mmHg 81%
    09:00 +22°C° 0 mm 1 m/S 723 mmHg 74%
    10:00 +24°C° 0 mm 1 m/S 724 mmHg 67%
    11:00 +25°C° 0 mm 1 m/S 723 mmHg 65%
    12:00 +26°C° 0 mm 1 m/S 723 mmHg 64%
    13:00 +27°C° 0 mm 1 m/S 723 mmHg 62%
    14:00 +27°C° 0.1 mm 1 m/S 723 mmHg 62%
    15:00 +27°C° 0.1 mm 2 m/S 722 mmHg 62%
    16:00 +28°C° 0.1 mm 2 m/S 722 mmHg 62%
    17:00 +26°C° 0.2 mm 2 m/S 722 mmHg 70%
    18:00 +25°C° 0.2 mm 1 m/S 722 mmHg 77%
    19:00 +23°C° 0.2 mm 1 m/S 722 mmHg 85%
    20:00 +22°C° 0.1 mm 1 m/S 722 mmHg 86%
    21:00 +22°C° 0.1 mm 1 m/S 722 mmHg 86%
    22:00 +22°C° 0.1 mm 1 m/S 723 mmHg 87%
    23:00 +21°C° 0.1 mm 1 m/S 723 mmHg 87%
    Mehr zeigen